sat.trackr.live / text

‹ back to catalog

PRSC-EO1

NORAD 62725 · 2025-012A

PAYLOAD ACTIVE UNKNOWN

§ Identity

Operator
Country
PAKI
Launch date
2025-01-17
Launch site
JSC
Launch vehicle
Mass (kg)
RCS (m²)

Purposes: earth_obs

External: N2YO · Heavens-Above · Gunter

§ Orbital elements

Epoch: 2026-05-25T04:20:51.822240Z

Period
94.88 min
Inclination
97.4230°
Eccentricity
0.0004923
Mean motion
15.17751479 rev/d
Perigee alt
509.2 km
Apogee alt
516.0 km
Semi-major
6,890.8 km
B*
2.9732e-4
RAAN
218.0899°
Arg perigee
354.9800°
Mean anomaly
5.1383°
Rev number
7,470

§ Raw data

PRSC-EO11 62725U 25012A   26145.18115535  .00005938  00000+0  29732-3 0  99992 62725  97.4230 218.0899 0004923 354.9800   5.1383 15.17751479 74708

JSON: /api/v1/satellites/62725 · /tle

For live sub-satellite position, see the globe view (requires WebGL).

§ Visibility from observer

Set your observer location to see the next 7 days of passes ≥ 10°. The values pass through the URL so the page stays shareable.

No JS? Fill the form by hand. The geolocation button needs JavaScript.